Flag for Norway Weather past 2 weeks in Gjøvik, Norway

Now
45 °F

Cool.


Feels Like: 44 °F
Forecast: 36 / 56 °F
Wind: 3 mph from North

Location: Lillehammer-Saetherengen

Current Time: May 26, 2015 at 4:58:51 AM

Latest Report: May 26, 2015 at 4:00 AM


Visibility: N/A

Pressure: 29.76 "Hg

Humidity: 74%

Dew point: 37 °F

Location of GjøvikLocation

Historic Weather in Gjøvik — Graph

°F

Gjøvik temperature yesterday

Maximum temperature yesterday: 54 °F (at 1:00 PM)
Minimum temperature yesterday: 44 °F (at 4:00 AM)
Average temperature yesterday: 48 °F

Past Weeks' High & Low Weather Summary

 TemperatureHumidityPressure
High59 °F (May 21, 7:00 PM)96% (May 17, 12:00 AM)30.09 "Hg (May 17, 12:00 AM)
Low35 °F (May 15, 6:00 AM)20% (May 15, 6:00 PM)29.47 "Hg (May 12, 10:00 PM)
Average45 °F69%29.76 "Hg
* Reported May 11 3:00 AM — May 26 3:00 AM, Gjøvik, Weather by CustomWeather, © 2015

Note: Actual official high and low records may vary slightly from our data, if they occured in-between our weather recording intervals... More about our weather records

Advertising

Gjøvik weather history for previous 24 hours

 ConditionsComfort  
Time TempWeatherWind HumidityBarometerVisibility
3:00 AM
Tue, May 26
46 °FCool.2 mph72%29.76 "HgN/A
2:00 AM46 °FCool.2 mph71%29.76 "HgN/A
1:00 AM47 °FCool.3 mph69%29.76 "HgN/A
12:00 AM47 °FCool.2 mph70%29.76 "HgN/A
11:00 PM
Mon, May 25
48 °FCool.3 mph65%29.75 "HgN/A
10:00 PM49 °FCool.3 mph64%29.74 "HgN/A
9:00 PM49 °FCool.3 mph65%29.72 "HgN/A
8:00 PM51 °FCool.3 mph62%29.71 "HgN/A
7:00 PM50 °FCool.3 mph63%29.70 "HgN/A
6:00 PM51 °FCool.6 mph61%29.70 "HgN/A
5:00 PM51 °FCool.1 mph62%29.69 "HgN/A
4:00 PM50 °FCool.3 mph68%29.69 "HgN/A
3:00 PM50 °FCool.2 mph71%29.68 "HgN/A
2:00 PM53 °FCool.2 mph56%29.67 "HgN/A
1:00 PM54 °FCool.3 mph55%29.66 "HgN/A
12:00 PM51 °FCool.3 mph58%29.67 "HgN/A
11:00 AM50 °FCool.3 mph68%29.68 "HgN/A
10:00 AM47 °FCool.3 mph79%29.68 "HgN/A
9:00 AM47 °FCool.5 mph83%29.67 "HgN/A
8:00 AM45 °FCool.1 mph96%29.67 "HgN/A
7:00 AM44 °FQuite cool.1 mph96%29.67 "HgN/A
6:00 AM44 °FQuite cool.2 mph96%29.68 "HgN/A
5:00 AM44 °FQuite cool.1 mph96%29.68 "HgN/A
4:00 AM44 °FQuite cool.1 mph95%29.69 "HgN/A
Weather by CustomWeather, © 2015

See weather overviewHow to use our weather pages